Location: Kailua
(21.4020°N, 157.7390°W)
Time: 14:57:51
(UTC-10:00)

Cosmos 2221 Rocket - Visible Passes

Search period start: 04 May 2016 00:00
Search period end: 14 May 2016 00:00
Orbit: 620 x 650 km, 82.5° (Epoch: 03 May)

Date Brightness Start Highest point End Pass type
(mag) Time Alt. Az. Time Alt. Az. Time Alt. Az.
04 May 6.9 19:59:35 10° WSW 20:01:35 13° W 20:03:35 10° NW visible
07 May 6.6 05:25:45 10° NNE 05:29:10 22° E 05:32:35 10° SE visible
07 May 6.8 19:27:26 10° WSW 19:30:14 16° W 19:33:03 10° NW visible
10 May 6.7 04:54:55 10° NE 04:57:50 17° E 05:00:45 10° ESE visible
11 May 5.1 05:15:59 10° NNE 05:20:11 41° E 05:24:24 10° SSE visible
13 May 6.7 04:24:21 10° NE 04:26:29 13° E 04:28:38 10° ESE visible
